www.pogodaiklimat.ru

Погода и климат >> Архив погоды >> Австралия >> Новый Южный Уэльс >> Брокен-Хилл


ПОГОДА в Брокен-Хилле

  • Прогноз погоды в Брокен-Хилле
  • Монитор погоды в Брокен-Хилле

АРХИВ ПОГОДЫ в Брокен-Хилле

Время (UTC), дата Ветер
(напр.,м/с)
 
Видим.   Явления Облачность Т
(С)
Тd
(С)
f
(%)
Тe
(С)
Тes
(С)
Комфортность P
(гПа)
Po
(гПа)
Тmin
(С)
Tmax
(С)
R
(мм)
R24
(мм)
S
(см)
10 17.01 С 2 н/о н/о +41.0 +4.7 11 +38 +38 очень
жарко
1003.5 972.0
11 17.01 С 4 н/о н/о +40.2 +5.4 12 +37 +37 очень
жарко
1004.1 972.6
12 17.01 З 6 н/о н/о +38.7 +5.4 13 +36 +36 очень
жарко
1005.0 973.5
14 17.01 З 3 н/о н/о +35.6 +6.8 17 +33 +33 жарко 1005.0 973.5
13 17.01 З 3 н/о н/о +37.0 +6.1 15 +34 +34 очень
жарко
1005.3 973.8
15 17.01 ЮЗ 10 н/о н/о +33.7 +9.7 23 +33 +33 жарко 1005.7 974.1
16 17.01 Ю 8 н/о н/о +33.7 +9.7 23 +33 +33 жарко 1005.0 973.5
17 17.01 Ю 8 н/о н/о +32.4 +9.9 25 +32 +32 жарко 1004.4 972.9
18 17.01 Ю 3 н/о н/о +31.7 +9.8 26 +31 +31 жарко 1004.7 973.2
20 17.01 В 6 н/о н/о +30.4 +9.8 28 +30 +30 жарко 1004.8 973.3
19 17.01 В 8 н/о н/о +31.1 +9.9 27 +31 +31 жарко 1004.5 973.0
21 17.01 В 6 н/о н/о +31.5 +9.7 26 +31 +31 жарко 1005.2 973.7
22 17.01 СВ 8 н/о н/о +34.2 +9.4 22 +33 +33 жарко 1005.4 973.9
23 17.01 СВ 4 н/о н/о +34.3 +8.8 21 +33 +33 жарко 1006.5 974.9
00 18.01 В 2 н/о н/о +37.3 +8.2 17 +35 +35 очень
жарко
1006.7 975.1
02 18.01 З 7 н/о н/о +41.7 +6.5 12 +39 +39 очень
жарко
1006.0 974.4
01 18.01 Ю 3 н/о н/о +39.9 +7.4 14 +38 +38 очень
жарко
1006.1 974.5
03 18.01 З 6 н/о н/о +41.3 +6.2 12 +39 +39 очень
жарко
1005.7 974.1
04 18.01 ЮЗ 7 н/о н/о +41.8 +7.8 13 +40 +40 очень
жарко
1005.3 973.8
05 18.01 ЮЗ 11 н/о н/о +40.5 +9.8 16 +39 +39 очень
жарко
1005.9 974.3
06 18.01 Ю 12 н/о н/о +39.8 +9.2 16 +38 +38 очень
жарко
1006.2 974.6
08 18.01 Ю 15 н/о н/о +34.7 +11.2 24 +34 +34 очень
жарко
1009.1 977.4
07 18.01 Ю 13 н/о н/о +38.1 +9.6 18 +37 +37 очень
жарко
1007.2 975.6
09 18.01 Ю 13 н/о н/о +32.7 +11.3 27 +33 +33 жарко 1010.6 978.9
10 18.01 Ю 12 н/о н/о +31.6 +10.9 28 +32 +32 жарко 1010.8 979.1
11 18.01 Ю 9 н/о н/о +30.9 +11.3 30 +31 +31 жарко 1011.5 979.8
12 18.01 Ю 7 н/о н/о +30.0 +11.5 32 +31 +31 жарко 1012.8 981.0
14 18.01 Ю 9 н/о н/о +27.9 +12.3 38 +29 +29 жарко 1014.0 982.2
13 18.01 Ю 6 н/о н/о +29.5 +11.1 32 +30 +30 жарко 1013.2 981.4
15 18.01 Ю 9 н/о н/о +24.7 +11.6 44 +26 +26 жарко 1014.4 982.6
16 18.01 Ю 11 н/о н/о +23.0 +11.4 48 +25 +25 комфорт 1013.8 982.0
17 18.01 Ю 9 н/о н/о +22.2 +11.3 50 +24 +24 комфорт 1014.0 982.2
18 18.01 Ю 11 н/о н/о +21.1 +9.0 46 +22 +22 комфорт 1014.4 982.6
20 18.01 Ю 9 н/о н/о +19.9 +8.9 49 +20 +20 1015.4 983.5
19 18.01 Ю 11 н/о н/о +20.4 +8.7 47 +21 +21 комфорт 1014.6 982.8
21 18.01 Ю 12 н/о н/о +20.7 +9.3 48 +21 +21 комфорт 1016.0 984.1
22 18.01 Ю 10 н/о н/о +22.3 +9.8 45 +24 +24 комфорт 1017.4 985.5
23 18.01 Ю 9 н/о н/о +23.8 +9.8 41 +25 +25 комфорт 1017.6 985.7
00 19.01 Ю 9 н/о н/о +25.2 +9.1 36 +26 +26 жарко 1017.7 985.8
02 19.01 Ю 9 н/о н/о +30.0 +8.4 26 +29 +29 жарко 1016.7 984.8
01 19.01 ЮВ 8 н/о н/о +27.9 +8.7 30 +28 +28 жарко 1017.5 985.6
03 19.01 Ю 9 н/о н/о +31.0 +8.1 24 +30 +30 жарко 1016.5 984.6
04 19.01 Ю 8 н/о н/о +31.7 +8.0 23 +31 +31 жарко 1015.8 983.9
05 19.01 Ю 8 н/о н/о +33.0 +7.8 21 +31 +31 жарко 1015.5 983.6
06 19.01 Ю 8 н/о н/о +33.1 +7.1 20 +31 +31 жарко 1014.8 983.0
08 19.01 Ю 8 н/о н/о +33.1 +4.8 17 +31 +31 жарко 1014.4 982.6
07 19.01 Ю 8 н/о н/о +33.0 +5.5 18 +31 +31 жарко 1014.5 982.7
09 19.01 Ю 8 н/о н/о +32.0 +2.1 15 +29 +29 жарко 1014.6 982.8
10 19.01 Ю 7 н/о н/о +30.9 +2.2 16 +28 +28 жарко 1015.4 983.5
11 19.01 Ю 7 н/о н/о +29.7 +2.1 17 +27 +27 жарко 1016.0 984.1
12 19.01 Ю 6 н/о н/о +28.6 +1.2 17 +26 +26 жарко 1016.9 985.0
14 19.01 Ю 7 н/о н/о +27.1 +2.2 20 +25 +25 комфорт 1016.8 984.9
13 19.01 Ю 7 н/о н/о +27.8 +1.3 18 +26 +26 жарко 1017.0 985.1
15 19.01 Ю 7 н/о н/о +26.3 +2.3 21 +25 +25 комфорт 1016.3 984.4
16 19.01 Ю 6 н/о н/о +25.2 +2.0 22 +24 +24 комфорт 1016.2 984.3
17 19.01 Ю 7 н/о н/о +23.9 +2.1 24 +23 +23 комфорт 1016.1 984.2
18 19.01 Ю 7 н/о н/о +23.5 +2.9 26 +23 +23 комфорт 1016.2 984.3
20 19.01 Ю 7 н/о н/о +22.1 +4.7 32 +22 +22 комфорт 1016.9 985.0
19 19.01 Ю 6 н/о н/о +22.9 +3.9 29 +23 +23 комфорт 1016.4 984.5
21 19.01 Ю 7 н/о н/о +22.1 +5.1 33 +22 +22 комфорт 1017.5 985.6
22 19.01 Ю 7 н/о н/о +23.3 +3.8 28 +23 +23 комфорт 1018.1 986.2
23 19.01 ЮВ 7 н/о н/о +25.9 +3.2 23 +25 +25 комфорт 1017.8 985.9
00 20.01 ЮВ 7 н/о н/о +27.3 +3.1 21 +26 +26 жарко 1018.0 986.1
02 20.01 ЮВ 8 н/о н/о +30.2 +2.5 17 +28 +28 жарко 1016.9 985.0
01 20.01 ЮВ 8 н/о н/о +28.2 +2.4 19 +26 +26 жарко 1017.8 985.9
03 20.01 ЮВ 7 н/о н/о +31.3 +0.6 14 +28 +28 жарко 1016.0 984.1
04 20.01 ЮВ 7 н/о н/о +30.6 +1.0 15 +28 +28 жарко 1015.2 983.3
05 20.01 Ю 7 н/о н/о +29.8 +2.1 17 +27 +27 жарко 1015.2 983.3
06 20.01 Ю 8 н/о н/о +29.6 +2.8 18 +27 +27 жарко 1014.3 982.5
08 20.01 Ю 6 н/о н/о +31.0 +3.9 18 +29 +29 жарко 1013.8 982.0
07 20.01 Ю 7 н/о н/о +29.7 +2.1 17 +27 +27 жарко 1013.7 981.9
09 20.01 Ю 5 н/о н/о +30.8 +6.0 21 +29 +29 жарко 1014.1 982.3
10 20.01 Ю 4 н/о н/о +29.9 +4.5 20 +28 +28 жарко 1014.3 982.5
11 20.01 ЮЗ 3 н/о н/о +27.4 +4.5 23 +26 +26 жарко 1014.7 982.9
12 20.01 Ю 2 н/о н/о +26.7 +3.9 23 +25 +25 комфорт 1014.7 982.9
14 20.01 Ю 2 н/о н/о +25.2 +3.2 24 +24 +24 комфорт 1014.2 982.4
13 20.01 ЮВ 1 н/о н/о +26.1 +4.0 24 +25 +25 комфорт 1014.7 982.9
15 20.01 Ю 1 н/о н/о +24.8 +3.5 25 +24 +24 комфорт 1013.9 982.1
16 20.01 штиль 0 н/о н/о +24.2 +3.5 26 +24 +24 комфорт 1013.5 981.7
17 20.01 Ю 2 н/о н/о +23.4 +2.8 26 +23 +23 комфорт 1012.9 981.1
18 20.01 ЮЗ 4 н/о н/о +22.1 +1.7 26 +22 +22 комфорт 1012.7 980.9
20 20.01 ЮЗ 3 н/о н/о +21.0 +8.6 45 +23 +23 комфорт 1013.2 981.4
19 20.01 ЮЗ 4 н/о н/о +21.8 +5.7 35 +22 +22 комфорт 1013.0 981.2
21 20.01 Ю 4 н/о н/о +23.1 +11.2 47 +25 +25 комфорт 1013.4 981.6
22 20.01 Ю 5 н/о н/о +25.9 +11.6 41 +27 +27 жарко 1013.7 981.9
23 20.01 Ю 4 н/о н/о +29.2 +9.9 30 +29 +29 жарко 1013.6 981.8
00 21.01 Ю 4 н/о н/о +31.1 +9.3 26 +30 +30 жарко 1013.4 981.6
02 21.01 В 3 н/о н/о +36.0 +4.3 14 +33 +33 жарко 1012.2 980.4
01 21.01 Ю 4 н/о н/о +33.6 +6.8 19 +32 +32 жарко 1012.9 981.1
03 21.01 Ю 3 н/о н/о +36.5 +4.7 14 +34 +34 очень
жарко
1011.4 979.7
04 21.01 З 4 н/о н/о +37.4 +4.4 13 +34 +34 очень
жарко
1010.6 978.9
05 21.01 ЮВ 3 н/о н/о +38.6 +5.3 13 +36 +36 очень
жарко
1009.8 978.1
06 21.01 ЮЗ 4 н/о н/о +38.3 +5.0 13 +35 +35 очень
жарко
1009.4 977.7
08 21.01 ЮЗ 5 н/о н/о +37.9 +4.7 13 +35 +35 очень
жарко
1009.2 977.5
07 21.01 ЮВ 3 н/о н/о +39.0 +4.4 12 +36 +36 очень
жарко
1009.1 977.4
09 21.01 ЮЗ 6 н/о н/о +37.4 +4.4 13 +34 +34 очень
жарко
1009.7 978.0
10 21.01 Ю 4 н/о н/о +35.8 +4.2 14 +33 +33 жарко 1010.4 978.7
11 21.01 Ю 3 н/о н/о +33.8 +3.6 15 +31 +31 жарко 1010.9 979.2
12 21.01 Ю 1 н/о н/о +31.2 +2.4 16 +29 +29 жарко 1011.2 979.5
14 21.01 штиль 0 н/о н/о +30.3 +4.9 20 +28 +28 жарко 1010.9 979.2
13 21.01 ЮЗ 1 н/о н/о +31.3 +4.9 19 +29 +29 жарко 1011.3 979.6
15 21.01 штиль 0 н/о н/о +29.6 +5.6 22 +28 +28 жарко 1010.5 978.8
16 21.01 штиль 0 н/о н/о +28.2 +4.5 22 +27 +27 жарко 1010.1 978.4
17 21.01 ЮВ 6 н/о н/о +30.2 +4.8 20 +28 +28 жарко 1009.8 978.1
18 21.01 В 6 н/о н/о +29.9 +5.9 22 +28 +28 жарко 1009.5 977.8
20 21.01 В 3 н/о н/о +28.5 +6.6 25 +28 +28 жарко 1010.3 978.6
19 21.01 В 6 н/о н/о +29.5 +6.8 24 +28 +28 жарко 1009.9 978.2
21 21.01 Ю 3 н/о н/о +31.0 +6.8 22 +30 +30 жарко 1010.8 979.1
22 21.01 В 5 н/о н/о +33.3 +6.6 19 +31 +31 жарко 1011.1 979.4
23 21.01 ЮВ 4 н/о н/о +34.5 +5.9 17 +32 +32 жарко 1011.3 979.6
00 22.01 ЮВ 4 н/о н/о +36.0 +4.3 14 +33 +33 жарко 1011.3 979.6
02 22.01 Ю 4 н/о н/о +38.8 +4.3 12 +36 +36 очень
жарко
1010.5 978.8
01 22.01 ЮВ 3 н/о н/о +37.5 +4.4 13 +35 +35 очень
жарко
1011.0 979.3
03 22.01 Ю 2 н/о н/о +40.1 +5.3 12 +37 +37 очень
жарко
1009.9 978.2
04 22.01 Ю 5 н/о н/о +41.0 +6.0 12 +38 +38 очень
жарко
1009.3 977.6
05 22.01 ЮЗ 6 н/о н/о +41.3 +6.2 12 +39 +39 очень
жарко
1008.8 977.1
06 22.01 Ю 6 н/о н/о +41.2 +6.1 12 +39 +39 очень
жарко
1008.2 976.6
08 22.01 Ю 7 н/о н/о +41.2 +6.1 12 +39 +39 очень
жарко
1007.5 975.9
07 22.01 Ю 3 н/о н/о +41.9 +6.7 12 +39 +39 очень
жарко
1007.7 976.1
09 22.01 Ю 4 н/о н/о +40.5 +5.6 12 +38 +38 очень
жарко
1007.7 976.1
10 22.01 Ю 5 н/о н/о +38.9 +5.5 13 +36 +36 очень
жарко
1008.2 976.6
11 22.01 Ю 4 н/о н/о +37.9 +5.8 14 +35 +35 очень
жарко
1008.9 977.2
12 22.01 ЮЗ 8 н/о н/о +35.5 +9.1 20 +34 +34 очень
жарко
1009.9 978.2
14 22.01 Ю 5 н/о н/о +34.1 +8.7 21 +33 +33 жарко 1009.6 977.9
13 22.01 Ю 6 н/о н/о +35.0 +7.9 19 +33 +33 жарко 1009.8 978.1
15 22.01 Ю 5 н/о н/о +33.5 +8.9 22 +32 +32 жарко 1009.2 977.5
16 22.01 Ю 5 н/о н/о +32.6 +8.8 23 +31 +31 жарко 1008.8 977.1
17 22.01 ЮВ 4 н/о н/о +31.8 +9.3 25 +31 +31 жарко 1008.4 976.8
18 22.01 ЮВ 5 н/о н/о +31.3 +9.5 26 +31 +31 жарко 1008.3 976.7
20 22.01 ЮЗ 4 н/о н/о +27.6 +8.5 30 +27 +27 жарко 1009.3 977.6
19 22.01 Ю 3 н/о н/о +30.0 +9.0 27 +29 +29 жарко 1008.5 976.9
21 22.01 Ю 2 н/о н/о +29.4 +9.0 28 +29 +29 жарко 1009.9 978.2
22 22.01 Ю 5 н/о н/о +32.4 +9.2 24 +31 +31 жарко 1010.6 978.9
23 22.01 ЮВ 6 н/о н/о +34.7 +7.7 19 +33 +33 жарко 1010.7 979.0
00 23.01 В 6 н/о н/о +37.0 +7.0 16 +35 +35 очень
жарко
1010.4 978.7
02 23.01 ЮВ 3 н/о н/о +40.8 +7.0 13 +38 +38 очень
жарко
1009.3 977.6
01 23.01 В 4 н/о н/о +39.1 +5.7 13 +36 +36 очень
жарко
1010.0 978.3
03 23.01 С 3 н/о н/о +41.7 +6.5 12 +39 +39 очень
жарко
1008.6 977.0
04 23.01 Ю 4 н/о н/о +40.9 +5.9 12 +38 +38 очень
жарко
1007.9 976.3
05 23.01 З 7 н/о н/о +42.4 +5.8 11 +40 +40 очень
жарко
1007.3 975.7
06 23.01 ЮЗ 7 н/о н/о +42.5 +5.9 11 +40 +40 очень
жарко
1006.8 975.2
08 23.01 Ю 7 н/о н/о +41.6 +6.4 12 +39 +39 очень
жарко
1006.1 974.5
07 23.01 ЮЗ 6 н/о н/о +42.0 +5.5 11 +39 +39 очень
жарко
1006.3 974.7
09 23.01 Ю 7 н/о н/о +40.3 +5.4 12 +37 +37 очень
жарко
1006.3 974.7
10 23.01 Ю 4 н/о н/о +38.5 +5.2 13 +36 +36 очень
жарко
1006.8 975.2
11 23.01 ЮВ 5 н/о н/о +37.4 +5.4 14 +35 +35 очень
жарко
1007.5 975.9
12 23.01 ЮВ 5 н/о н/о +36.3 +5.5 15 +34 +34 очень
жарко
1008.2 976.6
14 23.01 ЮВ 5 н/о н/о +34.7 +6.1 17 +32 +32 жарко 1008.2 976.6
13 23.01 ЮВ 4 н/о н/о +34.8 +6.2 17 +33 +33 жарко 1008.2 976.6
15 23.01 ЮВ 6 н/о н/о +33.6 +6.0 18 +31 +31 жарко 1008.0 976.4
16 23.01 ЮВ 6 н/о н/о +33.5 +6.7 19 +32 +32 жарко 1007.7 976.1
17 23.01 В 5 н/о н/о +32.3 +6.5 20 +30 +30 жарко 1007.4 975.8
18 23.01 В 5 н/о н/о +32.1 +6.3 20 +30 +30 жарко 1007.3 975.7
20 23.01 В 4 н/о н/о +28.8 +6.2 24 +28 +28 жарко 1008.1 976.5
19 23.01 В 4 н/о н/о +30.7 +6.6 22 +29 +29 жарко 1007.6 976.0
21 23.01 СВ 4 н/о н/о +32.3 +7.2 21 +31 +31 жарко 1008.1 976.5
22 23.01 В 4 н/о н/о +34.8 +7.0 18 +33 +33 жарко 1008.4 976.8
23 23.01 СВ 4 н/о н/о +37.4 +6.4 15 +35 +35 очень
жарко
1008.2 976.6
00 24.01 С 4 н/о н/о +40.9 +7.1 13 +38 +38 очень
жарко
1007.7 976.1
02 24.01 З 4 н/о н/о +42.4 +2.9 9 +39 +39 очень
жарко
1006.7 975.1
01 24.01 ЮВ 5 н/о н/о +41.3 +4.9 11 +38 +38 очень
жарко
1007.5 975.9
03 24.01 В 7 н/о н/о +43.9 +4.0 9 +41 +41 опасность
перегрева
1005.2 973.7
04 24.01 С 3 н/о н/о +43.5 +2.1 8 +40 +40 очень
жарко
1005.0 973.5
05 24.01 С 3 н/о н/о +44.3 +4.3 9 +41 +41 опасность
перегрева
1004.4 972.9
06 24.01 СЗ 5 н/о н/о +44.5 +2.8 8 +41 +41 опасность
перегрева
1003.8 972.3
08 24.01 СЗ 3 н/о н/о +44.5 +2.8 8 +41 +41 опасность
перегрева
1003.4 971.9
07 24.01 ЮЗ 4 н/о н/о +44.3 +2.7 8 +41 +41 опасность
перегрева
1003.5 972.0
09 24.01 ЮЗ 3 н/о н/о +43.4 +2.0 8 +40 +40 очень
жарко
1003.6 972.1
10 24.01 ЮЗ 3 н/о н/о +40.8 +1.7 9 +37 +37 очень
жарко
1004.2 972.7

 

Местоположение метеостанции Брокен-Хилл (Новый Южный Уэльс, Австралия): широта -32.00 долгота 141.46 высота над уровнем моря 282 м.

В архиве по умолчанию представлена погода в Брокен-Хилле за последнюю неделю. Архивные данные за месяц целиком и за предыдущие месяцы, начиная с января 2011 года, Вы можете получить, выбрав интересующий диапазон дат из раскрывающегося списка и нажав кнопку "Ввод!".


*Определитесь, кто Вы:
робот инопланетянин человек

Внимание! Время в таблицах - всемирное. Для получения местного времени необходимо прибавить поправку, которая равна 10 ч.

Смотрите также архив погоды в соседних городах и на ближайших метеорологических станциях:

Погода в Фоулерс Гэп (Новый Южный Уэльс, Австралия) (105 км)
Погода в Юнте (Южная Австралия, Австралия) (189 км)
Погода в Уилкании (Новый Южный Уэльс, Австралия) (189 км)
Погода в Уафт Клифс (Новый Южный Уэльс, Австралия) (199 км)
Погода в Милдьюре (Новый Южный Уэльс, Австралия) (255 км)
Погода в Ренмарке (Южная Австралия, Австралия) (255 км)
Погода в Локстоне (Южная Австралия, Австралия) (282 км)
Погода в Айванхо (Новый Южный Уэльс, Австралия) (286 км)
Погода в Тибообере (Новый Южный Уэльс, Австралия) (289 км)
Погода в Ли-Крике (Южная Австралия, Австралия) (328 км)

Пояснения к столбцам:

Ветер - указаны скорость ветра в м/с - средняя за 10 мин, порывы в срок и между сроками (в фигурных скобках) и направление, откуда дует ветер: С - северный, СВ - северо-восточный, В - восточный, ЮВ - юго-восточный, Ю - южный, ЮЗ - юго-западный, З - западный, СЗ - северо-западный.
Видимость - горизонтальная дальность видимости в метрах или километрах. При видимости от 1 до 10 км при отсутствии осадков обычно наблюдается дымка, при ухудшении видимости до 1 км и менее - туман. В сухую погоду видимость может ухудшаться дымом, пылью или мглою.
Явления - указаны атмосферные явления, наблюдавшиеся в срок или в последний час перед сроком; фигурными скобками обозначены явления, наблюдавшиеся между сроками (за 1-3 часа до срока); квадратными скобками обозначены град или гололедные отложения с указанием их диаметра в мм.
Облачность - указаны через наклонную черту общая и нижняя облачность в баллах и высота нижней границы облаков в метрах; квадратными скобками обозначены формы облаков: Ci - перистые, Cs - перисто-слоистые, Cc - перисто-кучевые, Ac - высококучевые, As - высокослоистые, Sc - слоисто-кучевые, Ns - слоисто-дождевые, Cu - кучевые, Cb - кучево-дождевые. Подробнее классификацию облаков см. в Атласе облаков (PDF).
T - Температура воздуха - температура, измеренная на высоте 2 м над землей.
Td - Температура точки росы - температура, при понижении до которой содержащийся в воздухе водяной пар достигнет насыщения.
f - Относительная влажность воздуха - влажноcть воздуха, измеренная на высоте 2 м над землей.
Te - Эффективная температура - температура, которую ощущает одетый по сезону человек в тени. Характеристика душности погоды. При расчете учитывается влияние влажности воздуха и скорости ветра на теплоощущения человека.
Tes - Эффективная температура на солнце - температура, которую ощущает человек, с поправкой на солнечный нагрев. Характеристика знойности погоды. Зависит от высоты солнца над горизонтом, облачности и скорости ветра. Ночью, в пасмурную погоду, а также при ветре 12 м/с и более поправка равна нулю.
P - Атмосферное давление - приведенное к уровню моря атмосферное давление.
Po - Атмосферное давление - измеренное на уровне метеостанции атмосферное давление.
Tmin - Минимальная температура - минимум температуры воздуха на высоте 2 м над землей.
Tmax - Максимальная температура - максимум температуры воздуха на высоте 2 м над землей.
R - Количество осадков - Количество выпавших осадков за период времени, мм. При наведении курсора мыши на число - период времени, за который выпало указанное количество осадков.
R24 - Количество осадков - Количество выпавших осадков за 24 часа, мм.
S - Снежный покров - Высота снежного покрова, см. При наведении курсора мыши на число - состояние снежного покрова и степень покрытия местности в баллах.